Location: Unspecified
(0.0000°N, 0.0000°E)
Time: 11:43:29
(UTC+01:00)

ATLAS V CENTAUR R/B - Visible Passes

Search period start: 23 November 2014 00:00
Search period end: 03 December 2014 00:00
Orbit: 246 x 30209 km, 17.8° (Epoch: 23 November)

Date Brightness Start Highest point End Pass type
(mag) Time Alt. Az. Time Alt. Az. Time Alt. Az.
23 Nov 7.4 04:09:43 10° WSW 11:53:59 68° NNW 12:08:38 10° ENE visible
24 Nov 4.6 01:02:53 10° ESE 21:35:40 22° ESE 04:37:07 10° E visible
24 Nov 7.3 23:54:33 66° S 23:54:40 66° S 07:43:00 10° E visible
26 Nov 8.2 02:12:57 16° WSW 09:40:19 87° NNW 10:16:21 10° ENE visible
26 Nov 4.0 19:24:59 10° NNW 19:27:15 27° NE 19:33:29 10° E visible
27 Nov 7.0 04:50:44 10° WSW 12:32:00 56° NNW 12:43:07 10° NE visible
27 Nov 5.5 21:49:16 10° W 21:55:11 75° SSW 05:32:11 10° E visible
29 Nov 7.7 00:15:34 10° W 06:44:05 71° ESE 08:19:31 10° ENE visible
30 Nov 8.1 02:46:14 10° WSW 10:24:47 78° NNW 10:49:26 10° ENE visible
30 Nov 3.7 19:56:31 10° NW 19:59:27 58° NNE 20:12:31 10° ESE visible
01 Dec 6.7 05:31:16 10° WSW 13:05:52 44° NNW 13:14:34 10° NE visible
01 Dec 6.4 22:20:41 10° W 22:28:42 66° S 06:13:19 10° E visible
